SCP
0 0 0 0 0 0 0 0 0 0 0 0 0 0 0 0 0 0 0 0 0 0 0 0 0 0 0 0 0 0 0 0 0 0 0 0 0 0 0 0 0 0 0
0 0 0 0 0 0 0 0 0 0 0 0 0 0 0 0 0 0 0 0 0 0 0 0 0 0 0 0 0 0 0 0 0 0 0 0 0 0 0 0 0 0 0
0 0 0 0 0 0 0 0 0 0 0 0 0 0 0 0 0 0 0 0 0 0 0 0 0 0 0 0 0 0 0 0 0 0 0 0 0 0 0 0 0 0 0
0 0 0 0 0 0 0 0 0 0 0 0 0 0 0 0 0 0 0 0 0 0 0 0 0 0 0 0 0 0 0 0 0 0 0 0 0 0 0 0 0 0 0
0 0 0 0 0 0 0 0 0 0 0 0 0 0 0 0 0 0 0 0 0 0 0 0 0 0 0 0 0 0 0 0 0 0 0 0 0 0 0 0 0 0 0
0 0 0 0 0 0 0 0 0 0 0 0 0 0 0 0 0 0 0 0 0 0 0 0 0 0 0 0 0 0 0 0 0 0 0 0 0 0 0 0 0 0 0
0 0 0 0 0 0 0 0 0 0 0 0 0 0 0 0 0 0 0 0 0 0 0 0 0 0 0 0 0 0 0 0 0 0 0 0 0 0 0 0 0 0 0
0 0 0 0 0 0 0 0 0 0 0 0 0 0 0 0 0 0 0 0 0 0 0 0 0 0 0 0 0 0 0 0 0 0 0 0 0 0 0 0 0 0 0
0 0 0 0 0 0 0 0 0 0 0 0 0 0 0 0 0 0 0 0 0 0 0 0 0 0 0 0 0 0 0 0 0 0 0 0 0 0 0 0 0 0 0
0 0 0 0 0 0 0 0 0 0 0 0 0 0 0 0 0 0 0 0 0 0 0 0 0 0 0 0 0 0 0 0 0 0 0 0 0 0 0 0 0 0 0
0 0 0 0 0 0 0 0 0 0 0 0 0 0 0 0 0 0 0 0 0 0 0 0 0 0 0 0 0 0 0 0 0 0 0 0 0 0 0 0 0 0 0
0 0 0 0 0 0 0 0 0 0 0 0 0 0 0 0 0 0 0 0 0 0 0 0 0 0 0 0 0 0 0 0 0 0 0 0 0 0 0 0 0 0 0
0 0 0 0 0 0 0 0 0 0 0 0 0 0 0 0 0 0 0 0 0 0 0 0 0 0 0 0 0 0 0 0 0 0 0 0 0 0 0 0 0 0 0
0 0 0 0 0 0 0 0 0 0 0 0 0 0 0 0 0 0 0 0 0 0 0 0 0 0 0 0 0 0 0 0 0 0 0 0 0 0 0 0 0 0 0
0 0 0 0 0 0 0 0 0 0 0 0 0 0 0 0 0 0 0 0 0 0 0 0 0 0 0 0 0 0 0 0 0 0 0 0 0 0 0 0 0 0 0
0 0 0 0 0 0 0 0 0 0 0 0 0 0 0 0 0 0 0 0 0 0 0 0 0 0 0 0 0 0 0 0 0 0 0 0 0 0 0 0 0 0 0
0 0 0 0 0 0 0 0 0 0 0 0 0 0 0 0 0 0 0 0 0 0 0 0 0 0 0 0 0 0 0 0 0 0 0 0 0 0 0 0 0 0 0
0 0 0 0 0 0 0 0 0 0 0 0 0 0 0 0 0 0 0 0 0 0 0 0 0 0 0 0 0 0 0 0 0 0 0 0 0 0 0 0 0 0 0
0 0 0 0 0 0 0 0 0 0 0 0 0 0 0 0 0 0 0 0 0 0 0 0 0 0 0 0 0 0 0 0 0 0 0 0 0 0 0 0 0 0 0
0 0 0 0 0 0 0 0 0 0 0 0 0 0 0 0 0 0 0 0 0 0 0 0 0 0 0 0 0 0 0 0 0 0 0 0 0 0 0 0 0 0 0
0 0 0 0 0 0 0 0 0 0 0 0 0 0 0 0 0 0 0 0 0 0 0 0 0 0 0 0 0 0 0 0 0 0 0 0 0 0 0 0 0 0 0
0 0 0 0 0 0 0 0 0 0 0 0 0 0 0 0 0 0 0 0 0 0 0 0 0 0 0 0 0 0 0 0 0 0 0 0 0 0 0 0 0 0 0
0 0 0 0 0 0 0 0 0 0 0 0 0 0 0 0 0 0 0 0 0 0 0 0 0 0 0 0 0 0 0 0 0 0 0 0 0 0 0 0 0 0 0
0 0 0 0 0 0 0 0 0 0 0 0 0 0 0 0 0 0 0 0 0 0 0 0 0 0 0 0 0 0 0 0 0 0 0 0 0 0 0 0 0 0 0
0 0 0 0 0 0 0 0 0 0 0 0 0 0 0 0 0 0 0 0 0 0 0 0 0 0 0 0 0 0 0 0 0 0 0 0 0 0 0 0 0 0 0
0 0 0 0 0 0 0 0 0 0 0 0 0 0 0 0 0 0 0 0 0 0 0 0 0 0 0 0 0 0 0 0 0 0 0 0 0 0 0 0 0 0 0
Wind_Speed
9 8 7 7 7 6 6 6 6 5 5 5 6 5 5 5 5 5 5 5 5 5 4 4 5 4 3 3 2 2 2 3 3 4 3 3 3 5 5 4 5 5 5
9 8 8 7 7 6 6 6 6 6 6 6 6 6 6 6 5 6 6 6 6 6 6 5 6 4 4 4 3 3 3 3 4 5 3 3 4 4 5 5 5 5 5
9 9 8 7 7 7 7 6 6 6 6 6 6 6 6 6 6 6 6 6 6 7 6 6 6 5 5 4 4 4 4 4 3 3 4 3 3 3 4 4 5 4 5
9 9 9 9 9 8 7 7 7 7 7 7 7 7 7 7 6 6 6 6 6 6 6 6 6 6 7 6 5 5 5 4 4 3 4 3 3 3 2 3 4 3 4
10 10 10 9 8 8 7 7 7 7 8 7 7 7 6 6 6 7 6 6 6 6 5 6 6 9 10 8 6 5 5 4 4 4 4 3 3 3 2 2 2 3 4
11 11 10 9 8 8 8 8 7 7 7 6 7 7 7 6 8 10 8 6 5 6 6 6 6 8 10 11 12 11 9 7 6 5 4 5 6 4 3 2 2 2 4
11 10 9 10 10 10 9 8 8 8 7 7 7 7 7 8 11 11 12 7 6 6 7 6 6 7 8 6 7 9 9 12 12 8 7 8 6 6 4 4 4 4 4
10 9 9 10 10 9 9 9 9 7 6 6 7 7 7 8 11 12 13 8 7 7 7 7 7 8 8 8 7 7 7 7 8 8 8 9 9 7 6 6 5 4 4
9 10 10 10 10 9 9 9 8 6 7 7 6 7 8 8 11 13 12 5 6 8 8 8 8 8 12 13 8 8 8 7 10 13 12 12 12 12 8 3 3 3 4
10 10 9 9 9 9 10 9 7 7 8 7 7 7 8 9 11 13 13 5 6 7 6 7 12 12 13 12 8 7 9 9 7 6 7 8 8 9 11 8 6 5 4
5 4 5 6 7 7 6 5 5 6 7 7 8 8 8 10 11 14 14 7 8 7 6 6 7 12 13 13 10 8 11 9 5 5 5 5 5 5 5 6 7 7 7
1 0 2 3 3 4 5 5 5 6 7 7 7 8 7 8 11 12 15 16 13 8 8 7 7 12 12 11 8 9 12 8 4 4 5 6 6 6 6 6 7 9 9
4 3 2 2 2 2 3 4 4 5 6 7 7 8 8 6 8 14 16 16 17 11 8 11 11 12 11 8 11 12 9 5 5 6 7 8 7 7 5 5 5 6 8
6 5 4 4 4 4 3 3 4 5 6 7 7 8 8 6 6 6 6 8 11 11 9 9 11 11 10 9 9 8 6 6 7 8 7 7 5 5 5 5 5 4 4
5 5 4 4 4 5 5 5 6 7 8 9 9 8 8 9 11 12 8 7 7 7 5 3 3 4 4 5 5 6 6 6 7 8 7 7 6 6 7 5 5 4 5
5 5 4 4 4 5 6 8 10 12 15 16 17 14 11 13 13 13 15 14 12 10 6 4 5 6 7 7 7 7 6 7 8 8 8 8 8 7 7 5 5 6 6
4 5 4 4 5 6 6 7 10 11 13 15 16 17 16 15 15 14 14 12 10 11 6 6 7 7 8 8 7 8 8 8 7 7 8 8 8 8 7 7 6 6 7
5 6 5 4 5 5 6 7 7 9 9 9 10 12 13 14 14 13 11 8 5 7 7 8 9 8 8 8 8 8 8 7 7 7 8 8 8 8 8 8 7 8 8
4 4 5 5 5 6 6 7 7 9 9 8 7 7 9 9 10 9 9 7 8 8 9 9 9 8 8 8 8 8 8 7 7 7 7 8 8 8 8 8 8 10 9
4 9 9 6 5 6 6 7 8 8 8 8 7 6 5 4 3 4 6 7 7 8 8 8 8 8 8 7 7 7 7 7 7 7 7 7 7 7 9 10 8 8 8
4 6 11 7 5 6 6 7 8 9 8 8 7 8 8 5 5 5 4 6 7 8 7 7 7 7 6 6 6 7 8 7 7 7 6 7 7 7 7 7 8 8 7
4 4 5 5 5 6 7 7 7 8 9 9 8 7 8 5 4 3 3 4 4 5 5 4 5 5 5 5 5 6 6 6 6 6 6 6 6 7 7 7 7 7 8
4 5 5 5 5 7 7 7 7 8 8 8 8 6 4 3 2 2 2 2 2 2 2 3 4 4 4 4 5 5 6 6 6 6 6 6 6 6 6 7 9 9 9
4 5 5 5 6 6 7 7 8 8 8 8 7 6 4 3 3 3 2 2 2 2 2 3 3 5 6 5 4 4 5 5 5 5 7 6 6 6 6 7 8 9 9
4 5 5 5 6 6 7 7 7 8 8 7 7 6 6 5 4 3 3 3 3 3 4 4 4 5 6 7 6 5 5 6 6 5 5 5 7 7 7 8 7 8 8
5 5 5 5 6 6 7 7 8 8 8 7 6 7 6 6 5 4 4 3 4 4 5 4 6 7 8 6 6 5 5 5 6 6 5 5 7 7 7 7 8 8 8
Wind_Direction
179 181 177 183 185 183 188 200 201 205 203 201 205 208 215 223 224 220 230 235 236 246 250 244 251 249 249 251 244 235 220 193 240 271 266 285 300 305 309 298 281 267 265
180 176 179 182 182 186 198 208 207 210 210 209 208 211 219 222 220 217 228 231 227 234 241 241 249 251 246 245 241 243 243 227 225 266 281 291 290 291 291 294 286 275 261
177 176 180 185 188 196 204 207 206 207 212 213 208 213 221 222 219 219 221 226 226 228 230 230 238 238 245 244 240 241 243 251 228 240 266 270 281 290 305 301 295 289 279
179 180 187 194 196 200 203 205 207 207 209 214 215 217 220 220 220 221 220 224 229 232 229 227 230 226 233 238 242 239 237 246 245 245 258 268 274 288 302 306 316 312 296
182 189 197 198 196 197 201 207 209 210 214 214 216 222 223 220 223 218 218 222 224 231 234 233 234 236 236 233 234 231 230 233 235 239 254 266 270 284 277 281 294 304 299
189 198 197 191 194 199 204 206 208 213 217 215 218 221 223 226 224 216 205 210 212 218 231 240 248 254 255 252 251 245 227 222 224 227 237 241 251 246 248 255 272 315 304
197 200 195 192 197 204 206 205 209 213 215 217 222 221 226 231 230 226 219 209 213 220 226 235 250 252 252 249 260 266 258 244 227 217 226 235 240 234 230 249 244 237 244
199 201 198 195 202 204 202 207 212 210 210 217 223 225 229 236 232 231 228 217 218 226 226 226 234 249 253 245 248 255 254 252 240 228 224 233 235 233 220 228 236 247 258
200 202 200 198 201 202 207 213 210 205 213 215 216 221 227 240 238 235 226 211 224 234 234 231 231 241 250 249 245 249 256 259 254 240 230 234 239 240 230 222 236 241 266
215 211 204 198 199 204 212 215 210 207 216 218 224 222 225 235 239 235 223 206 225 238 240 238 237 240 249 250 237 235 247 253 249 252 245 249 247 249 241 219 216 223 236
236 215 206 206 210 214 218 218 216 218 222 224 230 233 230 234 239 237 224 206 220 230 236 239 237 238 244 249 240 227 238 242 237 234 242 249 251 247 242 225 216 217 221
12 253 232 224 224 227 226 232 228 225 230 235 236 245 243 239 236 239 232 220 216 219 231 234 233 235 239 245 241 233 241 243 232 233 241 247 248 249 246 236 228 226 228
30 11 340 312 284 263 240 244 247 236 236 242 239 245 250 243 240 240 239 232 223 219 231 231 229 232 236 243 243 243 242 230 221 232 242 246 242 243 242 243 246 238 239
28 10 355 343 327 316 294 267 256 251 250 250 245 247 249 249 244 238 233 233 229 225 232 237 238 241 240 242 247 247 233 222 221 234 241 247 243 236 236 233 239 239 244
19 1 346 333 317 306 295 278 268 256 249 249 251 244 242 247 242 225 213 215 209 208 194 207 218 224 231 237 242 242 234 225 228 235 239 245 242 239 240 226 223 224 228
9 349 334 326 317 307 302 301 283 272 271 261 254 249 246 242 245 233 223 219 209 184 168 205 222 227 235 241 243 245 237 231 231 230 233 235 237 237 239 228 215 218 230
351 330 322 321 318 313 309 304 304 301 289 279 268 259 249 250 247 236 228 221 202 171 187 220 229 234 237 238 238 241 243 238 231 228 231 233 233 233 231 230 223 223 230
334 321 317 306 304 305 305 302 298 297 299 296 287 272 260 254 252 242 221 183 188 195 217 226 231 234 234 236 237 239 243 242 233 232 233 233 230 228 229 230 226 224 228
324 311 307 303 302 302 304 305 303 300 294 290 290 287 274 266 258 240 190 195 213 217 220 227 232 234 234 234 236 238 239 240 238 232 231 230 227 224 228 229 227 227 224
311 315 319 309 306 309 310 311 310 304 298 292 287 282 284 272 252 225 197 210 223 230 228 227 230 232 233 234 236 236 239 242 241 237 234 231 226 221 225 226 224 222 222
301 308 317 316 307 306 310 311 310 306 301 296 290 281 275 268 256 244 223 214 220 228 229 230 232 233 235 235 236 238 239 244 243 239 236 233 228 224 224 224 224 222 221
297 298 302 302 304 307 308 307 308 307 305 301 296 293 286 272 262 255 245 235 228 228 227 228 233 234 232 232 233 237 242 246 245 239 237 235 229 227 226 224 225 222 221
305 309 311 308 306 310 312 308 308 308 308 306 302 296 293 286 284 280 272 275 267 256 248 242 246 250 246 239 237 236 240 245 245 243 242 240 234 231 227 227 227 223 221
318 319 318 317 315 314 313 312 313 314 316 318 319 323 329 329 319 309 307 308 295 285 280 274 265 267 268 265 253 242 242 249 252 250 243 240 239 237 233 233 230 226 223
331 329 327 324 323 321 318 319 320 320 321 326 331 334 334 336 332 325 324 318 314 312 312 306 291 286 281 278 272 261 257 258 258 263 255 246 246 243 240 238 233 230 224
340 339 336 331 327 324 320 319 320 323 324 327 329 329 330 329 326 325 329 329 324 318 316 312 305 301 294 287 282 282 277 269 264 263 260 253 248 245 240 241 238 232 226